Location: Turrell
(35.3798°N, 90.2579°W)
Time: 11:38:49
(UTC+00:00)

ISS - Visible Passes

Search period start: 08 November 2024 00:00
Search period end: 18 November 2024 00:00
Orbit: 406 x 419 km, 51.6° (Epoch: 08 November)

Date Brightness Start Highest point End Pass type
(mag) Time Alt. Az. Time Alt. Az. Time Alt. Az.
08 Nov -1.2 11:12:30 10° SSW 11:12:30 10° SSW 11:12:34 10° SSW visible
11 Nov -1.6 00:32:19 10° S 00:33:31 17° SSE 00:33:31 17° SSE visible
11 Nov -1.6 23:44:04 10° SSE 23:45:25 12° SE 23:46:20 11° ESE visible
12 Nov -0.8 01:18:26 10° WSW 01:19:11 16° WSW 01:19:11 16° WSW visible
13 Nov -3.9 00:28:33 10° SW 00:31:51 76° SE 00:31:51 76° SE visible
13 Nov -3.0 23:39:00 10° SSW 23:42:05 36° SE 23:44:24 15° ENE visible
14 Nov -0.8 01:16:09 10° W 01:17:14 16° WNW 01:17:14 16° WNW visible
15 Nov -2.5 00:25:39 10° WSW 00:28:45 35° NW 00:29:37 30° N visible
15 Nov -3.5 23:35:26 10° SW 23:38:45 68° NW 23:41:54 11° NE visible
17 Nov -1.4 00:23:27 10° WNW 00:25:40 16° NNW 00:26:52 14° N visible
17 Nov -2.0 23:32:36 10° W 23:35:26 25° NW 23:38:17 10° NNE visible
